Weather in Aleksandrow Lodzki

Poland     51°48′57″N   19°18′13″E
temp.,
°C
wind,
m/s
gust,
m/s
humid.,
%
clouds,
%
prec.,
mm/h
press.,
hPa
HPBL,
m
25 february, thu
thu2501:00+7sw348142 0.0 103131
04:00+7sw34830 0.0 103029
07:00+6ssw33830 0.0 103030
10:00+10ssw35650 0.0 1029172
13:00+14ssw46520 0.0 1028285
16:00+14sw36600 0.0 1026214
19:00+10sw48740 0.0 1026137
22:00+9wsw48830 0.0 1026152
26 february, fri
fri2601:00+7wsw47880 0.0 1026130
04:00+6w34940 0.0 102693
07:00+5w349718 0.0 102662
10:00+7wnw479589 0.1 1026326
13:00+6wnw479594 0.8 1025362
16:00+7wnw51080100 0.3 1025692
19:00+5wnw51382100 0.3 1026620
22:00+5wnw61283100 0.0 1026567
27 february, sat
sat2701:00+3wnw6139159 0.0 1027517
04:00+3wnw7138968 0.0 1026612
07:00+3wnw7139084 0.0 1028661
10:00+4nw71082100 0.0 1029803
13:00+5nw71074100 0.0 1030963
16:00+5nw5969100 0.1 1030871
19:00+3nw497790 0.1 1031319
22:00+1nnw37880 0.0 1032185
28 february, sun
sun2801:000nw37930 0.0 1034192
04:00−1nnw36930 0.0 1033179
07:00−1nw24880 0.0 1034135
10:00+3nw346636 0.0 1034423
13:00+5nw356067 0.0 1034692
16:00+4wnw3568100 0.0 1033238
19:00+2nw338288 0.0 103547
22:00+1nw239045 0.0 103527
1 march, mon
mon101:00+1nw239532 0.0 103641
04:000nnw23972 0.0 103554
07:000nw229710 0.0 103650
10:00+4nw237912 0.0 1036336
13:00+7nw23666 0.0 1036484
16:00+6nw22690 0.0 1035223
19:00+3wnw11830 0.0 103622
22:00+2wsw12830 0.0 103622